Time,TemperatureF,DewpointF,PressureIn,WindDirection,WindDirectionDegrees,WindSpeedMPH,WindSpeedGustMPH,Humidity,HourlyPrecipIn,Conditions,Clouds,dailyrainin,SolarRadiationWatts/m^2,SoftwareType,DateUTC
2013-01-12 00:12:00,51.0,51.0,-100.00,North,1,0.0,6.0,99,0.00,,,0.13,0.000000,,2013-01-12 05:12:00,
2013-01-12 00:22:00,51.0,51.0,-100.00,North,1,0.0,6.0,99,0.00,,,0.13,0.000000,,2013-01-12 05:22:00,
2013-01-12 00:32:00,51.0,51.0,-100.00,North,1,0.0,6.0,99,0.00,,,0.13,0.000000,,2013-01-12 05:32:00,
2013-01-12 00:42:00,51.0,51.0,-100.00,North,1,0.0,6.0,99,0.00,,,0.13,0.000000,,2013-01-12 05:42:00,
2013-01-12 00:52:00,51.0,51.0,-100.00,NNE,31,0.0,4.0,99,0.00,,,0.13,0.000000,,2013-01-12 05:52:00,
2013-01-12 01:22:00,51.0,51.0,-100.00,NNE,31,0.0,4.0,99,0.00,,,0.13,0.000000,,2013-01-12 06:22:00,
2013-01-12 01:33:00,51.0,51.0,-100.00,NNE,31,0.0,4.0,99,0.00,,,0.13,0.000000,,2013-01-12 06:33:00,
2013-01-12 01:43:00,51.0,51.0,-100.00,NNE,31,0.0,4.0,99,0.00,,,0.13,0.000000,,2013-01-12 06:43:00,
2013-01-12 01:52:00,50.0,50.0,-100.00,West,276,0.0,16.0,99,0.00,,,0.13,0.000000,,2013-01-12 06:52:00,
2013-01-12 02:22:00,50.0,50.0,-100.00,West,276,0.0,16.0,99,0.00,,,0.13,0.000000,,2013-01-12 07:22:00,
2013-01-12 02:32:00,50.0,50.0,-100.00,West,276,0.0,16.0,99,0.00,,,0.13,0.000000,,2013-01-12 07:32:00,
2013-01-12 02:42:00,50.0,50.0,-100.00,West,276,0.0,16.0,99,0.00,,,0.13,0.000000,,2013-01-12 07:42:00,
2013-01-12 02:52:00,50.0,50.0,-100.00,NNE,25,0.0,4.0,99,0.00,,,0.13,0.000000,,2013-01-12 07:52:00,
2013-01-12 03:12:00,50.0,50.0,-100.00,NNE,25,0.0,4.0,99,0.00,,,0.13,0.000000,,2013-01-12 08:12:00,
2013-01-12 03:22:00,50.0,50.0,-100.00,NNE,25,0.0,4.0,99,0.00,,,0.13,0.000000,,2013-01-12 08:22:00,
2013-01-12 03:32:00,50.0,50.0,-100.00,NNE,25,0.0,4.0,99,0.00,,,0.13,0.000000,,2013-01-12 08:32:00,
2013-01-12 03:42:00,50.0,50.0,-100.00,NNE,25,0.0,4.0,99,0.00,,,0.13,0.000000,,2013-01-12 08:42:00,
2013-01-12 03:52:00,50.0,50.0,-100.00,North,349,0.0,9.0,99,0.00,,,0.13,0.000000,,2013-01-12 08:52:00,
2013-01-12 04:12:00,50.0,50.0,-100.00,North,349,0.0,9.0,99,0.00,,,0.13,0.000000,,2013-01-12 09:12:00,
2013-01-12 04:22:00,50.0,50.0,-100.00,North,349,0.0,9.0,99,0.00,,,0.13,0.000000,,2013-01-12 09:22:00,
2013-01-12 04:32:00,50.0,50.0,-100.00,North,349,0.0,9.0,99,0.00,,,0.13,0.000000,,2013-01-12 09:32:00,
2013-01-12 04:42:00,50.0,50.0,-100.00,North,349,0.0,9.0,99,0.00,,,0.13,0.000000,,2013-01-12 09:42:00,
2013-01-12 04:52:00,52.0,52.0,-100.00,NNE,23,0.0,2.0,99,0.01,,,0.14,0.000000,,2013-01-12 09:52:00,
2013-01-12 05:12:00,52.0,52.0,-100.00,NNE,23,0.0,2.0,99,0.01,,,0.14,0.000000,,2013-01-12 10:12:00,
2013-01-12 05:22:00,52.0,52.0,-100.00,NNE,23,0.0,2.0,99,0.01,,,0.14,0.000000,,2013-01-12 10:22:00,
2013-01-12 05:32:00,52.0,52.0,-100.00,NNE,23,0.0,2.0,99,0.01,,,0.14,0.000000,,2013-01-12 10:32:00,
2013-01-12 05:43:00,52.0,52.0,-100.00,NNE,23,0.0,2.0,99,0.01,,,0.14,0.000000,,2013-01-12 10:43:00,
2013-01-12 05:52:00,52.0,52.0,-100.00,NNE,16,0.0,3.0,99,0.00,,,0.14,0.000000,,2013-01-12 10:52:00,
2013-01-12 06:12:00,52.0,52.0,-100.00,NNE,16,0.0,3.0,99,0.00,,,0.14,0.000000,,2013-01-12 11:12:00,
2013-01-12 06:22:00,52.0,52.0,-100.00,NNE,16,0.0,3.0,99,0.00,,,0.14,0.000000,,2013-01-12 11:22:00,
2013-01-12 06:33:00,52.0,52.0,-100.00,NNE,16,0.0,3.0,99,0.00,,,0.14,0.000000,,2013-01-12 11:33:00,
2013-01-12 06:42:00,52.0,52.0,-100.00,NNE,16,0.0,3.0,99,0.00,,,0.14,0.000000,,2013-01-12 11:42:00,
2013-01-12 06:52:00,51.0,51.0,-100.00,West,268,0.0,2.0,99,0.00,,,0.14,0.000000,,2013-01-12 11:52:00,
2013-01-12 07:12:00,51.0,51.0,-100.00,West,268,0.0,2.0,99,0.00,,,0.14,0.000000,,2013-01-12 12:12:00,
2013-01-12 07:22:00,51.0,51.0,-100.00,West,268,0.0,2.0,99,0.00,,,0.14,0.000000,,2013-01-12 12:22:00,
2013-01-12 07:33:00,51.0,51.0,-100.00,West,268,0.0,2.0,99,0.00,,,0.14,0.000000,,2013-01-12 12:33:00,
2013-01-12 07:43:00,51.0,51.0,-100.00,West,268,0.0,2.0,99,0.00,,,0.14,0.000000,,2013-01-12 12:43:00,
2013-01-12 07:52:00,51.0,51.0,-100.00,NNW,348,0.0,3.0,99,0.00,,,0.13,1.000000,,2013-01-12 12:52:00,
2013-01-12 08:12:00,51.0,51.0,-100.00,NNW,348,0.0,3.0,99,0.00,,,0.13,1.000000,,2013-01-12 13:12:00,
2013-01-12 08:23:00,51.0,51.0,-100.00,NNW,348,0.0,3.0,99,0.00,,,0.13,1.000000,,2013-01-12 13:23:00,
2013-01-12 08:33:00,51.0,51.0,-100.00,NNW,348,0.0,3.0,99,0.00,,,0.13,1.000000,,2013-01-12 13:33:00,
2013-01-12 08:43:00,51.0,51.0,-100.00,NNW,348,0.0,3.0,99,0.00,,,0.13,1.000000,,2013-01-12 13:43:00,
2013-01-12 08:52:00,53.0,53.0,-100.00,NE,37,1.0,4.0,99,0.00,,,0.13,49.000000,,2013-01-12 13:52:00,
2013-01-12 09:12:00,53.0,53.0,-100.00,NE,37,1.0,4.0,99,0.00,,,0.13,49.000000,,2013-01-12 14:12:00,
2013-01-12 09:22:00,53.0,53.0,-100.00,NE,37,1.0,4.0,99,0.00,,,0.13,49.000000,,2013-01-12 14:22:00,
2013-01-12 09:33:00,53.0,53.0,-100.00,NE,37,1.0,4.0,99,0.00,,,0.13,49.000000,,2013-01-12 14:33:00,
2013-01-12 09:43:00,53.0,53.0,-100.00,NE,37,1.0,4.0,99,0.00,,,0.13,49.000000,,2013-01-12 14:43:00,
2013-01-12 09:52:00,55.0,55.0,-100.00,North,7,1.0,5.0,99,0.00,,,0.12,105.000000,,2013-01-12 14:52:00,
2013-01-12 10:23:00,55.0,55.0,-100.00,North,7,1.0,5.0,99,0.00,,,0.12,105.000000,,2013-01-12 15:23:00,
2013-01-12 10:33:00,55.0,55.0,-100.00,North,7,1.0,5.0,99,0.00,,,0.12,105.000000,,2013-01-12 15:33:00,
2013-01-12 10:43:00,55.0,55.0,-100.00,North,7,1.0,5.0,99,0.00,,,0.12,105.000000,,2013-01-12 15:43:00,
2013-01-12 10:52:00,59.0,59.0,-100.00,NE,41,1.0,5.0,99,0.00,,,0.10,146.000000,,2013-01-12 15:52:00,
2013-01-12 11:13:00,59.0,59.0,-100.00,NE,41,1.0,5.0,99,0.00,,,0.10,146.000000,,2013-01-12 16:13:00,
2013-01-12 11:23:00,59.0,59.0,-100.00,NE,41,1.0,5.0,99,0.00,,,0.10,146.000000,,2013-01-12 16:23:00,
2013-01-12 11:33:00,59.0,59.0,-100.00,NE,41,1.0,5.0,99,0.00,,,0.10,146.000000,,2013-01-12 16:33:00,
2013-01-12 11:43:00,59.0,59.0,-100.00,NE,41,1.0,5.0,99,0.00,,,0.10,146.000000,,2013-01-12 16:43:00,
2013-01-12 11:52:00,61.0,60.0,-100.00,West,267,0.0,6.0,98,0.00,,,0.01,153.000000,,2013-01-12 16:52:00,
2013-01-12 12:13:00,61.0,60.0,-100.00,West,267,0.0,6.0,98,0.00,,,0.01,153.000000,,2013-01-12 17:13:00,
2013-01-12 12:23:00,61.0,60.0,-100.00,West,267,0.0,6.0,98,0.00,,,0.01,153.000000,,2013-01-12 17:23:00,
2013-01-12 12:33:00,61.0,60.0,-100.00,West,267,0.0,6.0,98,0.00,,,0.01,153.000000,,2013-01-12 17:33:00,
2013-01-12 12:43:00,61.0,60.0,-100.00,West,267,0.0,6.0,98,0.00,,,0.01,153.000000,,2013-01-12 17:43:00,
2013-01-12 12:52:00,62.0,60.0,-100.00,NNW,335,0.0,5.0,92,0.00,,,0.01,230.000000,,2013-01-12 17:52:00,
2013-01-12 13:12:00,62.0,60.0,-100.00,NNW,335,0.0,5.0,92,0.00,,,0.01,230.000000,,2013-01-12 18:12:00,
2013-01-12 13:23:00,62.0,60.0,-100.00,NNW,335,0.0,5.0,92,0.00,,,0.01,230.000000,,2013-01-12 18:23:00,
2013-01-12 13:33:00,62.0,60.0,-100.00,NNW,335,0.0,5.0,92,0.00,,,0.01,230.000000,,2013-01-12 18:33:00,
2013-01-12 13:43:00,62.0,60.0,-100.00,NNW,335,0.0,5.0,92,0.00,,,0.01,230.000000,,2013-01-12 18:43:00,
2013-01-12 13:52:00,67.0,61.0,-100.00,SSW,192,1.0,5.0,82,0.00,,,0.01,293.000000,,2013-01-12 18:52:00,
2013-01-12 14:12:00,67.0,61.0,-100.00,SSW,192,1.0,5.0,82,0.00,,,0.01,293.000000,,2013-01-12 19:12:00,
2013-01-12 14:23:00,67.0,61.0,-100.00,SSW,192,1.0,5.0,82,0.00,,,0.01,293.000000,,2013-01-12 19:23:00,
2013-01-12 14:33:00,67.0,61.0,-100.00,SSW,192,1.0,5.0,82,0.00,,,0.01,293.000000,,2013-01-12 19:33:00,
2013-01-12 14:43:00,67.0,61.0,-100.00,SSW,192,1.0,5.0,82,0.00,,,0.01,293.000000,,2013-01-12 19:43:00,
2013-01-12 14:52:00,72.0,61.0,-100.00,SE,141,0.0,4.0,68,0.00,,,0.01,487.000000,,2013-01-12 19:52:00,
2013-01-12 15:13:00,72.0,61.0,-100.00,SE,141,0.0,4.0,68,0.00,,,0.01,487.000000,,2013-01-12 20:13:00,
2013-01-12 15:22:00,72.0,61.0,-100.00,SE,141,0.0,4.0,68,0.00,,,0.01,487.000000,,2013-01-12 20:22:00,
2013-01-12 15:33:00,72.0,61.0,-100.00,SE,141,0.0,4.0,68,0.00,,,0.01,487.000000,,2013-01-12 20:33:00,
2013-01-12 15:42:00,72.0,61.0,-100.00,SE,141,0.0,4.0,68,0.00,,,0.01,487.000000,,2013-01-12 20:42:00,
2013-01-12 15:52:00,68.0,61.0,-100.00,SSW,211,0.0,3.0,77,0.00,,,0.01,230.000000,,2013-01-12 20:52:00,
2013-01-12 16:22:00,68.0,61.0,-100.00,SSW,211,0.0,3.0,77,0.00,,,0.01,230.000000,,2013-01-12 21:22:00,
2013-01-12 16:33:00,68.0,61.0,-100.00,SSW,211,0.0,3.0,77,0.00,,,0.01,230.000000,,2013-01-12 21:33:00,
2013-01-12 16:43:00,68.0,61.0,-100.00,SSW,211,0.0,3.0,77,0.00,,,0.01,230.000000,,2013-01-12 21:43:00,
2013-01-12 16:52:00,65.0,61.0,-100.00,SSW,211,0.0,2.0,88,0.00,,,0.01,57.000000,,2013-01-12 21:52:00,
2013-01-12 17:23:00,65.0,61.0,-100.00,SSW,211,0.0,2.0,88,0.00,,,0.01,57.000000,,2013-01-12 22:23:00,
2013-01-12 17:33:00,65.0,61.0,-100.00,SSW,211,0.0,2.0,88,0.00,,,0.01,57.000000,,2013-01-12 22:33:00,
2013-01-12 17:43:00,65.0,61.0,-100.00,SSW,211,0.0,2.0,88,0.00,,,0.01,57.000000,,2013-01-12 22:43:00,
2013-01-12 17:52:00,62.0,61.0,-100.00,SSW,211,0.0,3.0,98,0.00,,,0.01,5.000000,,2013-01-12 22:52:00,
2013-01-12 18:13:00,62.0,61.0,-100.00,SSW,211,0.0,3.0,98,0.00,,,0.01,5.000000,,2013-01-12 23:13:00,
2013-01-12 18:23:00,62.0,61.0,-100.00,SSW,211,0.0,3.0,98,0.00,,,0.01,5.000000,,2013-01-12 23:23:00,
2013-01-12 18:33:00,62.0,61.0,-100.00,SSW,211,0.0,3.0,98,0.00,,,0.01,5.000000,,2013-01-12 23:33:00,
2013-01-12 18:43:00,62.0,61.0,-100.00,SSW,211,0.0,3.0,98,0.00,,,0.01,5.000000,,2013-01-12 23:43:00,
2013-01-12 18:52:00,60.0,60.0,-100.00,SSW,211,0.0,4.0,99,0.00,,,0.01,0.000000,,2013-01-12 23:52:00,
2013-01-12 19:12:00,60.0,60.0,-100.00,SSW,211,0.0,4.0,99,0.00,,,0.01,0.000000,,2013-01-13 00:12:00,
2013-01-12 19:23:00,60.0,60.0,-100.00,SSW,211,0.0,4.0,99,0.00,,,0.01,0.000000,,2013-01-13 00:23:00,
2013-01-12 19:33:00,60.0,60.0,-100.00,SSW,211,0.0,4.0,99,0.00,,,0.01,0.000000,,2013-01-13 00:33:00,
2013-01-12 19:43:00,60.0,60.0,-100.00,SSW,211,0.0,4.0,99,0.00,,,0.01,0.000000,,2013-01-13 00:43:00,
2013-01-12 19:52:00,58.0,58.0,-100.00,SSW,211,0.0,5.0,99,0.00,,,0.01,0.000000,,2013-01-13 00:52:00,
2013-01-12 20:12:00,58.0,58.0,-100.00,SSW,211,0.0,5.0,99,0.00,,,0.01,0.000000,,2013-01-13 01:12:00,
2013-01-12 20:23:00,58.0,58.0,-100.00,SSW,211,0.0,5.0,99,0.00,,,0.01,0.000000,,2013-01-13 01:23:00,
2013-01-12 20:33:00,58.0,58.0,-100.00,SSW,211,0.0,5.0,99,0.00,,,0.01,0.000000,,2013-01-13 01:33:00,
2013-01-12 20:43:00,58.0,58.0,-100.00,SSW,211,0.0,5.0,99,0.00,,,0.01,0.000000,,2013-01-13 01:43:00,
2013-01-12 20:52:00,59.0,59.0,-100.00,SSW,210,0.0,5.0,99,0.00,,,0.01,0.000000,,2013-01-13 01:52:00,
2013-01-12 21:13:00,59.0,59.0,-100.00,SSW,210,0.0,5.0,99,0.00,,,0.01,0.000000,,2013-01-13 02:13:00,
2013-01-12 21:23:00,59.0,59.0,-100.00,SSW,210,0.0,5.0,99,0.00,,,0.01,0.000000,,2013-01-13 02:23:00,
2013-01-12 21:33:00,59.0,59.0,-100.00,SSW,210,0.0,5.0,99,0.00,,,0.01,0.000000,,2013-01-13 02:33:00,
2013-01-12 21:43:00,59.0,59.0,-100.00,SSW,210,0.0,5.0,99,0.00,,,0.01,0.000000,,2013-01-13 02:43:00,
2013-01-12 21:52:00,57.0,57.0,-100.00,SSW,211,1.0,5.0,99,0.00,,,0.01,0.000000,,2013-01-13 02:52:00,
2013-01-12 22:22:00,57.0,57.0,-100.00,SSW,211,1.0,5.0,99,0.00,,,0.01,0.000000,,2013-01-13 03:22:00,
2013-01-12 22:33:00,57.0,57.0,-100.00,SSW,211,1.0,5.0,99,0.00,,,0.01,0.000000,,2013-01-13 03:33:00,
2013-01-12 22:43:00,57.0,57.0,-100.00,SSW,211,1.0,5.0,99,0.00,,,0.01,0.000000,,2013-01-13 03:43:00,
2013-01-12 22:52:00,58.0,58.0,-100.00,SSW,211,0.0,5.0,99,0.00,,,0.01,0.000000,,2013-01-13 03:52:00,
2013-01-12 23:12:00,58.0,58.0,-100.00,SSW,211,0.0,5.0,99,0.00,,,0.01,0.000000,,2013-01-13 04:12:00,
2013-01-12 23:22:00,58.0,58.0,-100.00,SSW,211,0.0,5.0,99,0.00,,,0.01,0.000000,,2013-01-13 04:22:00,
2013-01-12 23:33:00,58.0,58.0,-100.00,SSW,211,0.0,5.0,99,0.00,,,0.01,0.000000,,2013-01-13 04:33:00,
2013-01-12 23:43:00,58.0,58.0,-100.00,SSW,211,0.0,5.0,99,0.00,,,0.01,0.000000,,2013-01-13 04:43:00,
2013-01-12 23:52:00,58.0,58.0,-100.00,SSW,211,1.0,7.0,99,0.00,,,0.01,0.000000,,2013-01-13 04:52:00,